THOR ABLESTAR DEB, 13514

Orbit data source: Space-Track

THOR ABLESTAR DEB, 13514 is space debris in LEO originally from a launch on Thu, 29 Jun 1961 UTC launched from the Air Force Eastern Test Range (AFETR). Debris objects in space refer to the collection of defunct objects orbiting the Earth. Examples of debris include non-operational satellites, rocket bodies, and fragments generated from explosions, collisions, or faulty payload assembly.

Loading next visibility...
Identifier
13514, 1961-015KX
Orbit
LEO
Country
Flag of USUS
Related business
Manufacturer
Unknown
Mission
Spacecraft
Bus & Motor
Unknown
Mass
Unknown
Launch date (UTC)
1961-06-29 (65 years ago)
Launch vehicle
Unknown
Launch site
Air Force Eastern Test Range (AFETR)
Object type
Payload
Rocket body
Debris
Shape & HBR
Unknown shape, 0.1 m
Radar Cross Section
Medium (>0.1 m² and <1 m²)

Expand to show TLE details & history
Last TLE update: 20 hours ago

TLE from 20 hours ago
0 THOR ABLESTAR DEB
1 13514U 61015KX  26173.55580481  .00000051  00000-0  15458-3 0  9994
2 13514  66.7159  13.2670 0239611  24.2696   6.6030 13.51338183265295
Epoch: 2026-06-22T13:20Z
TLE epoch observation values (Epoch: 2026-06-22T13:20:21.535Z)
Latitude
28.4726°
Longitude
-84.1387°
Altitude
892.808 km
Speed
7.496 km/s
True Right ascension
01h 46m 45s
True Declination
28° 19' 53"
Sunlit
Object was in daylight at epoch
Visualization orbit readout
Latitude
Unknown
Longitude
Unknown
Altitude
Unknown
Speed
Unknown
Apparent Right ascension
Unknown
Apparent Declination
Unknown
Sunlit
N/A
Visualization observer readout
Local Sidereal Time
20:07:24
Azimuth
Unknown
Elevation
Unknown
Doppler factor
Unknown
Orbital elements
Apogee altitude
1,244.136 km
Perigee altitude
887.407 km
Semi-major axis
7,443.908 km
Eccentricity
0.02396
Inclination
66.7159°
RAAN
13.267°
Arg. of periapsis
24.2696°
True anomaly
6.9284°
Mean anomaly
6.603°
Eccentric anomaly
6.76471°
Mean motion
3.37942 °/min
Orbital period
106.53 mins
BSTAR
0.00015458
Loading maneuver chart data...
Computing Atmospheric mass density...

Documentation

Showing up to 5 results
|